Greenville Downtown, SC

11:53 PM EDT on April 19, 2018 (GMT -0400)
Greenville Downtown

Weather History for KGMU - March, 2014

Change the Weather History Date:

Thursday, March 27, 2014

  Actual Average Record
Temperature  
Mean Temperature 48 °F -  
Max Temperature 63 °F 65 °F 81 °F (2007)
Min Temperature 34 °F 45 °F 28 °F (2013)
Degree Days  
Heating Degree Days 16    
Moisture  
Dew Point 19 °F    
Average Humidity 33    
Maximum Humidity 50    
Minimum Humidity 18    
Precipitation  
Precipitation 0.00 in - - ()
Sea Level Pressure  
Sea Level Pressure 30.32 in    
Wind  
Wind Speed 4 mph (South)    
Max Wind Speed 14 mph    
Max Gust Speed 23 mph    
Visibility 10 miles    
Events      
Averages and records for this station are not official NWS values.
T = Trace of Precipitation, MM = Missing Value Source: NWS Daily Summary

Daily Weather History Graph

Daily Weather History Graph

Search for Another Location

Airport or City:

Astronomy

Mar. 27, 2014 Rise Set
Actual Time 7:23 AM EDT 7:46 PM EDT
Civil Twilight 6:57 AM EDT 8:12 PM EDT
Nautical Twilight 6:28 AM EDT 8:41 PM EDT
Astronomical Twilight 5:58 AM EDT 9:11 PM EDT
Moon 5:05 AM EDT (3/27) 4:39 PM EDT (3/27)
Length of Visible Light 13h 14m
Length of Day
12h 23m
Waning Crescent, 13% of the Moon is Illuminated
Mar 27
Waning Crescent
Mar 30
New
Apr 7
First Quarter
Apr 15
Full
Apr 22
Last Quarter

Hourly Weather History & Observations

Time (EDT) Temp. Windchill Dew Point Humidity Pressure Visibility Wind Dir Wind Speed Gust Speed Precip Events Conditions
12:53 AM 42.1 °F - 10.9 °F 28% 30.30 in 10.0 mi Calm Calm - N/A   Clear
1:53 AM 37.0 °F - 17.1 °F 44% 30.31 in 10.0 mi Calm Calm - N/A   Clear
2:53 AM 37.9 °F 35.5 °F 15.1 °F 39% 30.33 in 10.0 mi North 3.5 mph - N/A   Clear
3:53 AM 34.0 °F 29.8 °F 17.1 °F 50% 30.32 in 10.0 mi NNE 4.6 mph - N/A   Clear
4:53 AM 35.1 °F 32.2 °F 17.1 °F 48% 30.32 in 10.0 mi North 3.5 mph - N/A   Clear
5:53 AM 35.1 °F 30.1 °F 16.0 °F 46% 30.33 in 10.0 mi North 5.8 mph - N/A   Clear
6:53 AM 34.0 °F 29.8 °F 17.1 °F 50% 30.35 in 10.0 mi NNE 4.6 mph - N/A   Clear
7:53 AM 35.1 °F 32.2 °F 17.1 °F 48% 30.38 in 10.0 mi North 3.5 mph - N/A   Clear
8:53 AM 39.9 °F 35.1 °F 17.1 °F 40% 30.40 in 10.0 mi North 6.9 mph - N/A   Clear
9:53 AM 45.0 °F 43.5 °F 18.0 °F 34% 30.42 in 10.0 mi Variable 3.5 mph - N/A   Clear
10:53 AM 48.9 °F - 17.1 °F 28% 30.42 in 10.0 mi SSW 8.1 mph - N/A   Clear
11:53 AM 53.1 °F - 18.0 °F 25% 30.41 in 10.0 mi South 10.4 mph - N/A   Clear
12:53 PM 55.9 °F - 18.0 °F 23% 30.38 in 10.0 mi SSW 8.1 mph - N/A   Clear
1:53 PM 57.9 °F - 15.1 °F 19% 30.34 in 10.0 mi SSE 13.8 mph 23.0 mph N/A   Clear
2:53 PM 61.0 °F - 19.0 °F 20% 30.31 in 10.0 mi South 8.1 mph 21.9 mph N/A   Clear
3:53 PM 61.0 °F - 17.1 °F 18% 30.30 in 10.0 mi SW 8.1 mph 20.7 mph N/A   Clear
4:53 PM 63.0 °F - 19.0 °F 18% 30.28 in 10.0 mi South 11.5 mph - N/A   Clear
5:53 PM 62.1 °F - 19.0 °F 19% 30.26 in 10.0 mi South 10.4 mph 20.7 mph N/A   Clear
6:53 PM 61.0 °F - 19.9 °F 21% 30.24 in 10.0 mi South 12.7 mph 18.4 mph N/A   Clear
7:53 PM 59.0 °F - 21.9 °F 24% 30.25 in 10.0 mi South 5.8 mph - N/A   Partly Cloudy
8:53 PM 57.0 °F - 24.1 °F 28% 30.26 in 6.0 mi Calm Calm - N/A   Haze
9:53 PM 55.0 °F - 25.0 °F 31% 30.26 in 6.0 mi Calm Calm - N/A   Haze
10:53 PM 50.0 °F - 30.9 °F 48% 30.25 in 6.0 mi Calm Calm - N/A   Haze
11:53 PM 53.1 °F - 35.1 °F 50% 30.24 in 10.0 mi SSE 8.1 mph - N/A   Scattered Clouds